Voltar ao catálogo

STARLINK-2472

AtivoComunicaçõesVLEO
NORAD 48130·PAYLOAD·🇺🇸 United States

Lançado Apr 7, 2021 de Cape Canaveral Space Force Station

Loading…

Próximas Passagens (próximas 24 horas)

TLE

AtualizadoSource: CelesTrak SupGP

Época: Sep 14, 2026, 20:21 UTC

1 48130C 21027AQ  26257.84840278  .00010205  00000+0  32805-3 0  2576
2 48130  53.1604   7.8841 0001039  84.0698 247.0227 15.31708686    13

Acompanhe STARLINK-2472 em tempo real com AllMySat

Download on the App Store